Location: C�an Torras
(41.5052°N, 1.9280°E)
Time: 18:37:43
(UTC+00:00)

Cosmos 1300 - Pass Details

Date: 20 January 2021
Orbit: 511 x 513 km, 82.5° (Epoch: 02 March)

Event Time Altitude Azimuth Distance (km) Brightness Sun altitude
Rises 17:25:24 0° 354° (N) 2,637 6.1 -6.3°
Reaches altitude 10° 17:27:32 10° 356° (N) 1,746 5.2 -6.7°
Maximum altitude 17:31:22 74° 82° (E) 539 2.6 -7.4°
Drops below altitude 10° 17:35:09 10° 167° (SSE) 1,730 5.5 -8.0°
Sets 17:37:16 0° 169° (S) 2,611 6.4 -8.4°
